• Join FlightAware (Why Join?)
  • Login
  • US Flag 
11:13PM EDT


 

Airport Tracker/Info


-or-


 

Live Flight TrackerFlight Track Log ✈ ASQ6115 ✈ 30-Apr-2013 ✈ KMSN - KORD

Flight Track Log - Related Links

Times and Time Zones

All times are in EDT time to prevent confusion due to time zone crossing. See the ASQ6115 flight status page for this flight to view local times or setup timezone preferences in your user account.

Time Position Orientation Groundspeed Altitude Reporting Facility
EDT Latitude Longitude Course Direction KTS MPH feet Rate Location/Type
08:15PM 42.9978 -89.2925 163° South 219 252 6,800  Level Chicago Center
08:16PM 42.8739 -89.2239 144° Southeast  Level FlightAware Approximate
08:16PM 42.9322 -89.3236 199° South 262 302 9,400  Level Chicago Center
08:17PM 42.8090 -89.1981 170° South  Level FlightAware Approximate
08:17PM 42.8889 -89.4028 233° Southwest 265 305 10,900  Level Chicago Center
08:18PM 42.7422 -89.1798 162° South  Level FlightAware Approximate
08:18PM 42.8064 -89.4006 179° South 306 352 11,100  Level Chicago Center
08:19PM 42.6692 -89.1474 162° South  Level FlightAware Approximate
08:19PM 42.7233 -89.3900 175° South 302 348 11,100  Level Chicago Center
08:20PM 42.6233 -89.3586 167° South 320 368 11,100 -60 Level Chicago Center
08:21PM 42.5842 -89.2472 115° Southeast 347 399 11,000 -60 Descending Chicago Center
08:22PM 42.5608 -89.1225 104° East 346 398 11,000  Level Chicago Center
08:23PM 42.5278 -89.0056 111° Southeast 338 389 11,000  Level Chicago Center
08:24PM 42.4964 -88.9003 112° Southeast 312 359 11,000 -420 Level Chicago Center
08:25PM 42.4589 -88.7781 113° Southeast 304 350 10,200 -960 Descending Chicago Center
08:26PM 42.4275 -88.6750 112° Southeast 299 344 9,100 -600 Descending Chicago Center
08:27PM 42.3958 -88.5725 113° Southeast 297 342 9,000 -180 Descending Chicago Center
08:28PM 42.3633 -88.4708 113° Southeast 295 339 8,800 -780 Descending Chicago Center
08:29PM 42.3264 -88.3544 113° Southeast 297 342 7,500 -900 Descending Chicago Center
08:30PM 42.2858 -88.2672 122° Southeast 289 333 7,000 -300 Descending Chicago Center
08:31PM 42.2272 -88.2031 141° Southeast 279 321 7,000 -660 Level Chicago Center
08:32PM 42.1753 -88.1397 138° Southeast 260 299 5,700 -1,320 Descending Chicago Center
08:33PM 42.1306 -88.0908 141° Southeast 221 254 4,300 -1,500 Descending Chicago Center
08:34PM 42.1000 -88.0667 150° Southeast 208 239 3,500 -1,260 Descending Chicago TRACON
08:35PM 42.0667 -88.0167 132° Southeast 187 215 2,500 -1,020 Descending Chicago TRACON